Location: Fauquembergues
(50.6005°N, 2.0987°E)
Time: 08:50:42
(UTC+00:00)

CZ-4C R/B - Pass Details

Date: 14 July 2020
Orbit: 632 x 1370 km, 63.4° (Epoch: 14 August)

Event Time Altitude Azimuth Distance (km) Brightness Sun altitude
Rises 00:14:21 0° 311° (NW) 3,894 6.2 -17.7°
Reaches altitude 10° 00:17:17 10° 300° (WNW) 3,045 5.4 -17.6°
Maximum altitude 00:23:17 28° 246° (WSW) 2,180 4.0 -17.5°
Enters shadow 00:26:33 21° 212° (SSW) 2,556 4.1 -17.5°
